EHI
8 8 8 4 1 1 1 0 0 0 0 1 3 11 20 21 17 17 30 54 65 53 43 44 39 23 8 1 1 1 2 2 2 1 1 1 0 0 0 0 0 0 0 0 0 0 0 0 0
4 6 6 3 1 1 0 0 0 0 0 1 5 10 13 13 13 19 35 53 52 38 33 39 37 24 10 4 3 4 5 5 4 3 1 1 0 0 0 0 0 0 0 0 0 0 0 0 0
1 2 2 1 1 1 0 0 1 0 0 2 7 10 7 5 10 19 34 46 41 29 29 37 37 26 14 8 7 9 10 10 9 7 4 2 0 0 0 0 0 0 0 0 0 0 0 0 0
0 0 0 0 1 1 0 0 1 1 0 5 16 19 10 6 9 15 25 37 37 31 30 33 35 28 16 11 10 13 15 13 12 11 6 2 1 0 0 0 0 0 0 0 0 0 0 0 0
0 0 0 0 0 0 0 0 1 1 2 11 28 31 18 8 8 10 15 25 32 33 29 27 28 24 15 11 10 12 14 13 12 10 6 2 1 0 0 0 0 0 0 0 0 0 0 0 0
0 0 0 0 0 0 0 1 2 2 4 14 30 34 21 9 7 7 8 16 32 39 29 21 20 17 11 8 6 6 8 9 8 6 3 1 0 0 0 0 0 0 0 0 1 0 0 0 0
0 0 0 0 0 0 1 2 3 4 7 13 23 29 22 11 8 8 9 19 38 46 30 16 13 10 7 5 3 3 5 5 5 4 2 0 0 0 0 0 0 0 0 1 3 2 0 0 0
0 0 0 0 0 1 2 4 6 9 15 20 27 35 29 18 11 11 14 25 43 46 29 16 13 9 4 4 5 5 5 5 3 2 1 0 0 1 1 3 3 2 0 2 3 2 1 0 1
0 0 0 0 0 1 3 5 7 13 23 34 45 48 37 24 17 15 18 30 42 42 30 23 21 12 5 9 12 9 6 5 4 3 3 1 1 3 5 9 11 8 3 3 3 2 2 1 1
0 0 0 0 0 1 2 4 7 15 27 42 53 50 36 23 17 16 23 36 44 40 31 33 34 22 13 20 23 16 14 15 13 13 13 9 6 8 14 20 21 14 7 5 5 4 3 2 1
0 0 0 0 0 0 0 3 8 19 30 37 41 37 26 17 13 16 28 44 48 38 32 41 45 35 31 37 36 29 30 34 34 33 31 23 17 18 26 31 28 20 12 10 12 10 6 3 3
0 0 0 0 1 1 2 7 15 25 30 31 28 25 21 18 19 26 39 52 51 40 37 47 55 51 50 51 47 43 44 49 51 50 44 36 29 30 35 37 35 30 22 19 20 19 12 8 10
0 0 0 0 0 1 6 13 21 26 28 28 26 25 28 33 38 45 55 61 56 47 48 58 66 64 59 55 50 46 46 47 48 45 42 38 34 34 36 36 35 31 25 23 23 21 15 13 15
0 0 0 0 0 2 8 16 22 24 25 27 29 33 42 52 57 61 67 69 63 60 63 68 69 65 58 50 44 38 34 33 33 32 31 30 31 30 29 26 23 21 20 21 20 16 12 11 13
0 0 0 0 0 2 7 15 21 22 24 28 34 44 55 64 70 73 74 74 72 72 74 70 63 59 56 47 37 28 23 22 24 24 23 23 23 21 18 16 15 14 14 15 15 12 9 8 8
0 0 0 0 0 1 6 14 18 18 22 29 37 46 56 65 70 74 75 77 79 79 77 69 57 54 53 45 32 24 21 19 19 19 19 18 15 12 12 12 12 11 11 10 9 9 8 7 6
0 0 0 0 0 0 4 13 17 15 18 28 35 41 49 56 60 64 69 75 77 76 73 67 58 50 44 35 24 18 17 15 13 13 15 12 7 6 7 9 9 8 8 8 6 6 7 6 7
0 0 0 0 0 0 4 11 14 13 16 26 35 39 43 46 49 52 59 66 68 68 68 65 57 45 32 23 17 14 13 11 9 10 10 8 4 2 3 5 6 5 5 6 5 4 4 5 6
0 0 0 0 0 0 3 7 9 10 15 26 34 38 39 41 42 43 47 51 54 57 60 58 49 33 23 18 15 12 11 9 8 9 9 7 5 3 2 3 4 2 2 3 2 2 2 3 3
0 0 0 0 0 1 3 4 6 9 14 20 27 30 31 34 36 35 32 32 35 41 45 42 37 26 17 15 14 12 11 9 8 11 12 8 6 5 3 3 3 2 1 1 1 1 1 1 1
0 0 0 0 1 2 2 5 8 11 12 13 16 19 21 24 29 26 19 17 20 26 29 31 37 33 21 16 14 12 11 8 9 14 16 10 6 5 4 4 3 3 2 1 0 0 0 0 0
0 0 0 0 1 1 1 4 9 10 10 11 12 13 15 17 19 17 13 14 18 21 25 39 53 50 36 26 19 15 12 9 10 16 18 14 8 5 4 3 3 3 3 1 0 0 0 0 0
0 0 0 0 0 0 0 3 5 6 8 11 14 14 14 13 13 12 13 18 22 23 32 52 68 65 50 34 25 18 12 9 10 13 14 13 10 5 3 3 3 3 2 1 0 0 0 0 0
0 0 0 0 0 0 0 1 3 3 4 8 13 15 13 10 9 9 12 19 24 28 38 57 73 72 55 37 25 19 14 10 8 7 7 8 7 5 3 2 4 4 2 0 0 0 0 0 0
0 0 0 0 0 0 0 1 2 1 1 4 8 11 10 8 7 9 11 17 25 33 43 58 71 69 52 33 22 17 13 8 5 3 2 3 3 2 2 2 3 3 2 0 0 0 0 0 0
0 0 0 0 0 0 0 0 0 0 0 1 3 5 5 5 6 7 9 14 22 31 42 55 62 56 39 25 18 15 10 6 3 2 1 0 0 0 0 1 1 1 1 0 0 0 0 0 0
0 0 0 0 0 0 0 0 0 0 0 0 0 1 1 1 2 4 6 10 17 27 36 43 44 38 26 16 12 10 8 5 2 1 0 0 0 0 0 0 0 0 0 0 0 0 0 0 0
0 0 0 0 0 0 0 0 0 0 0 0 0 0 0 0 0 1 3 8 16 25 30 29 28 24 18 11 7 6 6 6 4 1 0 0 0 0 0 0 0 0 0 0 0 0 0 0 0
0 0 0 0 0 0 0 0 0 1 0 0 0 0 0 0 0 1 5 12 18 22 23 21 18 15 11 7 5 5 5 4 3 1 0 0 0 0 0 0 0 0 0 0 0 0 0 0 0
0 0 0 0 0 0 0 0 0 1 0 0 0 0 0 0 0 1 6 14 17 17 17 16 13 10 7 5 4 4 4 2 1 0 0 0 0 0 0 0 0 0 0 0 0 0 0 0 0
Wind_Speed
11 12 11 9 8 6 9 11 5 9 10 11 12 15 19 16 12 12 13 21 23 20 17 16 15 14 12 11 11 11 11 12 12 11 11 11 11 11 10 9 9 9 10 10 9 9 9 9 8
11 14 11 8 8 3 4 10 5 7 8 8 12 18 19 16 14 15 16 20 23 20 16 15 16 14 13 12 11 11 12 12 12 11 11 11 10 10 9 9 8 8 9 9 9 8 8 8 8
14 17 10 9 12 5 7 8 2 5 6 8 12 16 14 12 13 13 16 21 21 18 17 16 16 14 13 12 12 12 12 12 12 11 11 10 10 9 8 8 7 7 7 8 8 8 7 7 6
10 11 9 11 16 6 3 3 1 3 7 7 14 13 11 9 13 16 18 21 21 19 17 16 16 15 13 13 12 12 12 12 11 11 10 9 9 8 8 7 6 6 6 6 7 6 6 6 5
11 10 13 15 15 5 6 6 2 4 5 7 14 16 11 12 17 17 17 20 19 19 17 16 16 15 13 12 12 11 11 10 10 10 9 8 8 7 6 6 5 5 6 5 5 5 5 4 4
9 11 14 14 9 2 7 6 4 7 6 8 15 17 10 10 15 16 16 16 19 20 18 15 15 14 13 12 11 10 10 9 9 8 8 7 7 6 6 5 5 5 5 5 5 4 4 4 3
11 12 17 19 12 6 5 3 2 6 4 5 12 15 11 11 14 15 14 15 18 20 18 14 13 12 12 11 10 10 9 8 8 7 7 6 6 6 6 5 5 5 4 4 4 4 4 4 4
10 12 18 19 15 6 1 1 1 6 4 3 7 14 14 11 11 14 13 15 17 17 16 14 13 12 10 10 10 10 9 8 8 7 6 6 6 6 7 7 6 5 5 5 5 4 4 5 6
11 12 15 16 10 3 3 3 3 5 5 5 10 19 21 16 12 13 13 14 13 13 13 13 14 11 10 11 11 11 10 9 8 8 8 7 5 6 6 8 8 7 6 6 5 6 6 7 9
9 11 14 10 9 6 5 4 5 1 5 12 16 19 21 16 14 13 13 13 12 11 11 10 11 8 7 7 9 7 8 7 6 5 6 4 2 1 2 5 8 8 7 6 6 6 7 7 5
9 12 13 11 9 7 6 5 4 2 6 13 10 9 15 16 14 13 12 12 11 9 8 11 9 6 4 4 5 2 2 4 4 4 3 1 0 1 0 2 3 3 5 3 3 4 4 4 3
8 11 10 10 10 10 9 4 5 8 12 13 10 8 11 13 13 12 12 13 11 8 8 9 9 6 5 4 2 2 2 2 2 3 2 2 1 1 1 1 0 0 1 1 1 1 3 3 3
8 9 8 8 8 8 8 4 7 8 14 16 14 11 11 12 12 11 11 11 10 8 8 9 8 7 5 4 2 3 2 3 3 2 2 1 1 1 1 1 0 1 1 1 1 2 2 3 4
9 9 9 9 10 7 4 1 8 5 8 12 12 10 10 11 12 12 10 10 9 8 8 9 7 7 5 3 2 2 1 2 2 2 3 2 1 1 1 1 1 2 1 1 2 3 3 3 4
7 7 9 10 10 5 2 4 5 2 6 9 10 10 10 11 12 12 10 10 10 9 9 8 7 6 4 3 1 1 1 2 2 2 2 2 2 2 2 2 1 1 1 2 2 3 3 4 4
9 5 6 9 11 9 4 2 3 5 3 7 9 9 9 9 11 10 9 9 10 9 7 5 6 6 5 3 1 1 2 2 2 1 3 4 3 2 2 2 1 1 2 2 2 2 2 2 2
7 4 4 8 11 9 2 5 4 10 6 7 9 9 10 9 10 10 10 9 9 8 7 6 6 5 4 4 2 2 2 2 1 2 3 3 2 2 2 2 2 2 2 2 3 1 2 3 3
8 3 3 5 7 5 3 9 8 9 7 6 7 9 10 10 9 9 10 10 9 8 7 7 6 5 4 3 2 1 1 1 1 2 3 3 2 3 3 2 2 3 2 2 2 3 2 2 3
9 3 2 3 6 4 4 10 10 8 5 6 6 7 10 10 10 9 9 10 9 8 7 6 6 4 2 2 1 1 1 0 1 2 4 2 2 3 3 3 3 3 2 3 4 3 4 4 3
8 7 4 5 6 3 4 6 4 4 4 6 8 7 9 11 10 9 8 8 9 8 7 6 5 5 3 2 1 0 1 1 0 1 2 2 1 1 3 3 3 3 3 3 3 2 2 4 4
6 6 7 5 2 1 1 2 2 5 6 6 8 9 10 12 12 11 9 9 9 9 8 7 6 5 3 2 1 0 0 1 1 0 1 1 1 1 2 3 3 3 4 3 3 2 3 3 4
5 6 7 7 2 1 3 2 3 5 6 8 10 11 11 11 12 12 11 10 9 9 9 7 6 5 3 2 1 2 2 2 1 0 1 1 1 2 2 2 2 3 3 5 5 3 4 4 4
6 6 7 9 5 4 4 2 4 7 8 10 10 10 11 12 12 11 12 10 10 10 9 8 7 5 4 2 1 2 2 2 2 3 2 1 3 3 3 2 1 2 3 4 4 4 4 4 4
6 5 7 11 7 5 6 3 5 7 10 11 12 12 12 12 12 12 11 10 9 8 8 8 8 6 4 3 2 2 2 2 3 4 3 3 2 2 2 1 1 1 3 4 4 4 5 4 5
6 5 2 1 2 7 7 2 6 9 11 11 13 14 13 13 11 11 10 10 9 8 8 7 8 7 5 4 2 1 1 2 4 4 3 2 3 2 3 3 2 2 3 4 4 4 5 5 5
8 7 4 5 3 2 2 4 8 10 10 10 10 12 13 12 11 11 10 9 8 8 7 7 8 6 5 4 3 1 1 3 2 3 3 4 3 3 3 2 3 3 4 5 4 4 5 5 4
7 7 8 8 5 2 1 7 12 10 11 10 11 12 13 13 13 12 11 10 9 7 7 6 7 5 4 2 3 2 3 2 2 3 3 3 3 4 4 4 4 4 4 5 5 4 5 5 5
7 9 6 6 6 3 3 2 6 10 11 11 11 11 12 12 12 12 11 9 8 7 7 6 6 5 3 2 3 3 2 2 2 3 3 3 4 4 4 5 5 5 5 5 5 5 5 6 5
7 7 5 6 7 5 2 2 8 10 10 11 12 12 11 12 11 11 10 9 9 8 8 7 6 5 4 4 3 1 1 2 2 3 4 4 3 4 4 5 5 5 6 6 5 6 6 7 6
10 8 6 4 5 6 3 3 6 6 8 9 10 11 11 10 10 11 11 10 9 8 8 8 7 6 6 5 3 3 3 3 3 4 3 3 4 4 5 5 5 6 7 6 6 6 7 6 6
Wind_Direction
203 225 230 243 245 244 305 304 9 64 68 63 60 73 70 60 77 100 115 110 112 116 120 118 113 113 116 121 126 129 130 128 126 123 121 118 116 113 110 107 102 96 92 89 85 83 83 82 81
223 228 232 244 246 237 298 289 324 69 82 86 75 79 78 71 83 104 108 113 115 121 127 118 115 112 112 114 119 125 128 127 126 125 123 122 121 120 116 113 109 102 99 96 93 91 89 87 86
244 244 252 251 250 218 203 237 254 93 98 94 84 70 74 89 99 108 118 120 117 117 113 116 117 113 111 110 111 116 122 124 125 125 125 124 125 125 122 119 115 111 108 103 101 98 97 94 91
241 237 241 255 267 280 260 293 310 85 93 97 101 81 76 83 106 118 127 119 117 120 119 119 118 115 114 113 112 114 120 124 125 127 128 129 129 130 128 126 122 117 113 110 109 105 105 104 100
241 257 250 260 270 307 304 298 309 71 82 88 94 94 85 93 111 125 126 123 129 122 120 124 122 120 119 119 118 118 121 125 129 132 135 137 138 139 140 139 133 128 123 124 121 120 121 122 123
250 253 261 267 271 239 281 303 334 72 78 92 105 108 107 119 123 131 130 134 127 122 122 124 125 125 126 127 127 128 130 133 136 140 144 147 150 153 153 152 150 144 141 143 146 146 149 156 161
260 276 280 282 272 231 236 283 47 95 114 122 123 117 124 135 130 130 130 127 122 121 125 136 136 133 133 134 136 137 139 141 144 148 153 161 169 175 178 177 175 169 163 166 171 174 179 185 198
263 282 281 278 274 262 162 304 129 110 103 93 130 123 133 133 135 127 128 125 122 125 133 140 143 143 149 148 150 152 153 156 162 164 171 184 196 201 202 198 191 188 184 184 189 197 205 209 215
258 263 270 282 306 333 33 346 334 99 123 73 67 113 129 140 138 134 132 123 119 124 134 145 141 150 162 162 157 165 170 175 181 182 190 201 213 207 203 213 187 188 197 201 204 209 215 220 222
246 261 274 305 333 334 353 306 281 115 95 76 72 104 126 140 145 142 135 129 124 125 134 127 132 142 162 154 150 176 176 171 196 182 182 200 219 228 204 167 176 184 198 209 215 228 231 232 230
260 272 294 309 312 311 300 281 284 113 82 85 97 122 136 141 143 141 138 133 126 130 126 121 119 130 134 114 151 149 146 150 185 154 157 168 299 281 151 144 172 187 208 218 201 223 241 244 249
264 284 290 299 314 308 291 304 35 74 109 116 144 168 151 142 139 140 136 132 132 136 124 117 115 113 77 64 65 87 96 122 84 91 83 68 37 355 1 56 73 221 232 226 186 211 246 264 274
268 275 291 303 301 292 297 9 70 94 123 138 155 170 147 126 122 116 114 119 127 127 114 98 99 95 86 75 29 52 59 77 90 94 83 56 32 358 329 338 342 278 269 227 223 235 250 253 253
309 323 329 326 322 311 296 42 85 102 128 139 147 139 119 111 112 109 116 116 122 120 107 104 103 99 94 95 71 31 38 77 68 78 87 73 43 14 339 293 259 262 254 229 233 239 236 241 241
311 321 327 326 304 288 302 29 55 171 160 143 128 116 110 108 109 118 123 122 117 107 101 109 118 113 114 117 129 100 79 84 78 84 87 72 58 23 336 295 280 284 266 238 227 242 237 238 236
320 312 313 302 290 270 242 95 314 285 209 123 121 122 113 101 106 109 112 111 111 112 110 112 114 113 115 110 105 94 87 88 95 124 98 74 51 22 331 320 14 345 295 267 249 242 258 273 278
288 276 263 265 262 265 202 134 195 250 218 155 145 139 126 126 120 120 121 116 115 118 118 109 105 117 119 126 133 116 94 92 110 86 82 69 43 25 354 349 18 322 309 307 312 20 349 318 313
282 232 215 242 264 265 133 140 193 227 223 164 148 140 133 132 126 121 119 123 123 122 120 119 117 119 133 136 138 127 122 146 112 98 92 69 34 37 4 323 28 346 322 326 348 338 312 289 276
319 345 338 302 275 278 132 143 179 199 203 155 143 138 137 134 129 128 130 128 127 127 126 127 127 133 148 132 139 144 129 97 118 132 115 97 46 27 331 335 350 315 322 353 336 332 317 297 274
333 322 303 269 259 297 107 118 159 175 176 156 145 149 143 136 135 140 143 141 139 139 136 140 149 155 166 122 86 98 26 298 214 81 123 120 78 353 320 19 331 342 343 306 285 294 298 300 306
317 306 298 281 280 26 81 124 166 189 163 161 161 160 156 154 154 158 157 154 151 152 159 165 160 152 155 126 193 301 51 295 332 70 139 106 44 320 343 333 324 335 312 317 343 309 297 299 306
300 296 302 308 315 270 203 191 199 216 192 184 180 170 163 162 160 163 164 167 166 167 172 159 153 152 152 164 252 291 278 291 312 330 54 58 312 277 273 284 304 326 322 319 311 1 342 315 302
313 329 337 348 347 303 245 198 181 192 211 198 184 177 168 168 169 172 172 173 177 177 172 162 158 158 164 184 228 280 311 335 358 10 355 328 277 258 240 227 246 313 300 310 327 324 315 309 302
303 322 11 17 359 305 254 222 158 178 197 188 182 182 175 174 173 172 172 172 180 180 174 166 158 158 166 195 225 237 306 336 328 319 302 292 288 279 273 237 110 295 299 316 315 307 295 286 294
287 300 2 46 254 247 237 217 138 166 177 178 176 176 177 177 173 171 176 176 180 183 180 166 152 160 179 194 207 222 291 296 269 265 292 315 311 323 36 28 10 316 306 295 285 285 282 283 283
263 271 277 285 259 212 211 138 135 142 148 158 166 170 174 175 172 174 175 177 184 184 173 156 150 164 179 187 174 174 252 278 307 10 352 327 316 331 358 332 301 289 288 289 295 293 282 275 272
286 292 296 298 308 335 245 117 119 135 144 155 165 172 178 180 179 179 179 182 180 168 156 152 145 155 171 179 152 196 221 256 313 328 289 292 331 319 340 338 316 298 286 281 282 276 280 283 277
270 300 307 310 314 337 48 91 156 166 163 167 174 178 179 181 182 180 174 171 152 144 139 137 136 147 164 199 209 221 191 229 253 272 301 311 300 296 300 295 296 295 288 280 274 273 272 274 271
243 259 289 311 321 337 11 307 162 171 169 174 179 180 183 186 182 171 156 145 139 143 142 143 149 161 180 206 200 238 256 270 276 268 269 275 281 291 289 285 286 287 285 279 273 271 271 272 273
303 275 266 275 303 304 311 104 113 155 168 170 175 176 182 181 172 158 148 141 148 156 159 160 166 176 185 193 185 200 223 245 261 273 279 284 281 278 281 283 287 287 287 287 282 281 283 279 278